Location: Unspecified
(0.0000°N, 0.0000°E)
Time: 09:03:11
(UTC+00:00)

Courier 1B Rocket - Pass Details

Date: 29 May 2026
Orbit: 920 x 1201 km, 28.2° (Epoch: 9 June)

Event Time Altitude Azimuth Distance (km) Brightness Sun altitude
Rises 18:09:35 0° 209° (SSW) 3,969 8.3 -2.8°
Reaches altitude 10° 18:15:35 10° 173° (S) 3,075 7.3 -4.2°
Maximum altitude 18:17:08 11° 161° (SSE) 3,039 7.2 -4.6°
Drops below altitude 10° 18:18:42 10° 149° (SSE) 3,100 7.2 -4.9°
Enters shadow 18:22:13 - 126° (SE) 3,553 7.3 -5.7°
Sets 18:24:50 0° 113° (ESE) 4,091 - -6.3°
